[[{"header":{"parameterUnit":"m.s-1","parameterCategory":1,"la1":30.2991,"la2":30.254,"lo1":-89.0895,"lo2":-89.0444,"dy":0.0017,"dx":0.0017,"nx":28,"ny":28,"refTime":"2025-04-14T09:00:00:Z","depth":0,"parameterNumber":2,"parameterNumberName":"U-component_of_WINDS"},"data":[0,0,0,0,0,0,0,0,0,0,0,0,0,0,0,0,0,0,0,0,0,0,0,0,0,0,0,0,0,0,0,0,0,0,0,0,0,0,0,0,0,0,0,0,0,0,0,0,0,0,0,0,0,0,0,0,0,0,-0.7222,-0.7223,0,-0.7248,-0.7248,-0.7249,-0.7194,-0.7193,-0.7191,-0.7189,-0.7219,-0.7221,-0.7223,0,0,0,0,0,0,0,0,0,0,0,0,0,-0.7128,-0.713,-0.7222,-0.7223,-0.7223,-0.7248,-0.7248,-0.7249,-0.7195,-0.7192,-0.719,-0.7188,-0.7218,-0.7221,-0.7224,0,0,0,0,0,0,0,0,0,0,0,0,0,-0.7163,-0.7131,-0.7222,-0.7199,-0.7197,-0.7248,-0.7248,-0.7249,-0.7195,-0.7192,-0.719,-0.7187,-0.7217,-0.722,-0.7224,-0.73,0,0,-0.7235,-0.7237,0,0,0,0,0,0,0,0,-0.7161,-0.7167,-0.7202,-0.7201,-0.7199,-0.7215,-0.7226,-0.7266,-0.7196,-0.7196,-0.7189,-0.7186,-0.722,-0.7223,-0.7234,-0.7301,-0.7302,-0.7235,-0.7238,-0.7239,-0.724,0,0,0,0,0,0,0,-0.7159,-0.7165,-0.7233,-0.7203,-0.7201,-0.7188,-0.719,-0.7233,-0.7223,-0.7196,-0.7192,-0.7195,-0.7218,-0.723,-0.7234,-0.7303,-0.7235,-0.7239,-0.7241,-0.7242,-0.7434,-0.7436,0,0,0,0,0,0,-0.7159,-0.7164,-0.7232,-0.7233,-0.7173,-0.7192,-0.7194,-0.7213,-0.7222,-0.7221,-0.7198,-0.7193,-0.7225,-0.723,-0.7235,-0.7325,-0.7239,-0.7243,-0.7245,-0.7431,-0.7434,-0.7437,0,0,0,0,0,0,-0.7157,-0.7166,-0.7231,-0.7197,-0.7205,-0.7196,-0.7218,-0.7215,-0.7226,-0.7223,-0.7221,-0.7212,-0.7224,-0.723,-0.7284,-0.7325,-0.7244,-0.7248,-0.7427,-0.7432,-0.7436,-0.7506,0,0,0,0,0,0,-0.7155,-0.7165,-0.7194,-0.7198,-0.7207,-0.7279,-0.722,-0.7217,-0.7233,-0.7226,-0.7236,-0.7235,-0.7222,-0.7279,-0.7287,-0.7329,-0.725,-0.7424,-0.7429,-0.7434,-0.75,-0.7512,-0.7522,0,0,0,0,0,-0.7152,-0.7213,-0.7196,-0.7204,-0.7242,-0.7281,-0.7286,-0.7269,-0.7236,-0.7265,-0.7263,-0.7235,-0.7319,-0.7285,-0.7294,-0.7337,-0.7421,-0.7428,-0.7434,-0.7495,-0.751,-0.7522,0,0,0,0,0,0,-0.7215,-0.7213,-0.7194,-0.7258,-0.727,-0.7272,-0.7308,-0.7285,-0.7307,-0.7301,-0.7279,-0.7282,-0.734,-0.7344,-0.7306,-0.7411,-0.7364,-0.7373,-0.7407,-0.7421,-0.7433,-0.7432,-0.7253,0,0,0,0,0,-0.7236,-0.7268,-0.7265,-0.7322,-0.7329,-0.7318,-0.7334,-0.7319,-0.7331,-0.7336,-0.7338,-0.7352,-0.7381,-0.7401,-0.7427,-0.7499,-0.7501,-0.7533,-0.7544,-0.7554,-0.7562,-0.7601,-0.7616,-0.7459,-0.7459,-0.7459,0,0,-0.7281,-0.7284,-0.7306,-0.7335,-0.7342,-0.7376,-0.7322,-0.7361,-0.7386,-0.7343,-0.7394,-0.7395,-0.7409,-0.7472,-0.75,-0.7477,-0.7606,-0.7562,-0.7569,-0.7573,-0.7609,-0.7624,-0.7638,-0.7463,-0.7462,-0.7462,0,0,-0.7381,-0.7385,-0.7434,-0.7442,-0.7454,-0.7445,-0.7457,-0.7462,-0.7461,-0.7512,-0.748,-0.7509,-0.756,-0.7571,-0.7584,-0.7685,-0.7661,-0.7694,-0.7755,-0.7793,-0.7805,-0.7816,-0.7854,-0.7868,-0.7702,-0.7703,-0.7703,0,-0.7436,-0.7485,-0.7462,-0.7503,-0.7517,-0.7477,-0.7527,-0.7536,-0.7556,-0.7567,-0.754,-0.7602,-0.7608,-0.7674,-0.7699,-0.7709,-0.7723,-0.7695,-0.7805,-0.7816,-0.7826,-0.7862,-0.7876,-0.7707,-0.7706,-0.7706,-0.7705,0,-0.7553,-0.7587,-0.7625,-0.7644,-0.7662,-0.7707,-0.7692,-0.7713,-0.7696,-0.7691,-0.7743,-0.7748,-0.7776,-0.7789,-0.7774,-0.7853,-0.7838,-0.7808,-0.7762,-0.7845,-0.7879,-0.7892,-0.7713,-0.7711,-0.771,-0.7709,0,0,-0.7696,-0.77,-0.7715,-0.7723,-0.7732,-0.7759,-0.7802,-0.7827,-0.7846,-0.7861,-0.7897,-0.794,-0.7912,-0.7926,-0.791,-0.7943,-0.8025,-0.7909,-0.7909,-0.7933,-0.8115,-0.8139,-0.8155,-0.8008,-0.801,-0.8012,-0.8114,0,-0.7796,-0.7869,-0.7849,-0.7923,-0.7955,-0.7917,-0.7954,-0.7964,-0.7959,-0.7986,-0.7981,-0.8013,-0.7973,-0.7981,-0.8011,-0.8009,-0.8062,-0.8001,-0.8043,-0.8045,-0.8044,-0.8173,-0.8199,-0.8295,-0.8127,-0.8129,-0.8131,0,-0.7924,-0.7942,-0.8019,-0.8022,-0.8034,-0.8069,-0.809,-0.8116,-0.8126,-0.812,-0.8135,-0.8113,-0.8155,-0.8106,-0.8165,-0.8124,-0.8139,-0.814,-0.8144,-0.8149,-0.8095,-0.8184,-0.8325,-0.8341,-0.8151,-0.8149,-0.8148,0,-0.8023,-0.8067,-0.8119,-0.8126,-0.8131,-0.8156,-0.8159,-0.8166,-0.8182,-0.8201,-0.8212,-0.8235,-0.8249,-0.8268,-0.8253,-0.8218,-0.8315,-0.8264,-0.8313,-0.8314,-0.8338,-0.8337,-0.8486,-0.8344,-0.8344,-0.8343,-0.8343,0,-0.8139,-0.8188,-0.8163,-0.8196,-0.8249,-0.8225,-0.8279,-0.8278,-0.8284,-0.8316,-0.8283,-0.8314,-0.829,-0.8319,-0.8307,-0.8358,-0.8364,-0.8362,-0.8359,-0.8367,-0.8367,-0.8379,-0.8373,-0.8347,-0.8346,-0.8345,-0.8345,0,-0.8261,-0.8246,-0.83,-0.8299,-0.83,-0.834,-0.8339,-0.8369,-0.8361,-0.8401,-0.8409,-0.8398,-0.8429,-0.8415,-0.8448,-0.844,-0.8507,-0.8494,-0.8504,-0.8502,-0.8553,-0.8549,-0.8717,-0.8738,-0.8579,-0.8581,-0.8582,0,-0.8337,-0.8374,-0.8376,-0.8395,-0.84,-0.8429,-0.8446,-0.8423,-0.8441,-0.8454,-0.8483,-0.8512,-0.8534,-0.8586,-0.8581,-0.8607,-0.8595,-0.8652,-0.8599,-0.8606,-0.8599,-0.8598,-0.8602,-0.8664,-0.8666,-0.8667,-0.8668,0,-0.8475,-0.8466,-0.849,-0.8511,-0.8531,-0.8548,-0.8561,-0.8578,-0.8555,-0.8577,-0.8609,-0.8626,-0.8659,-0.8689,-0.8711,-0.8714,-0.8689,-0.8684,-0.8697,-0.8708,-0.8713,-0.8713,-0.8536,-0.8682,-0.868,-0.8679,-0.8679,-0.8678,-0.8578,-0.8609,-0.8616,-0.8644,-0.8651,-0.8664,-0.8692,-0.8686,-0.8712,-0.8737,-0.8721,-0.8759,-0.8767,-0.8794,-0.8801,-0.883,-0.8808,-0.8826,-0.8832,-0.8837,-0.8845,-0.8705,-0.8834,-0.8833,-0.8833,-0.8832,-0.8832,0,-0.8716,-0.8718,-0.8744,-0.8763,-0.8785,-0.8756,-0.8769,-0.879,-0.8823,-0.8832,-0.8854,-0.889,-0.8918,-0.8914,-0.8939,-0.8964,-0.8953,-0.8971,-0.8971,-0.8973,-0.8863,-0.885,-0.898,-0.898,-0.898,-0.898,-0.898,-0.898,-0.8791,-0.8842,-0.8833,-0.8887,-0.8888,-0.8924,-0.8934,-0.8946,-0.8954,-0.8995,-0.9018,-0.9014,-0.9019,-0.9044,-0.9068,-0.9066,-0.9078,-0.9102,-0.9096,-0.8995,-0.898,-0.8966,-0.8954,-0.9104,-0.9105,-0.9204,-0.9205,-0.9206]},{"header":{"parameterUnit":"m.s-1","parameterCategory":1,"la1":30.2991,"la2":30.254,"lo1":-89.0895,"lo2":-89.0444,"dy":0.0017,"dx":0.0017,"nx":28,"ny":28,"refTime":"2025-04-14T09:00:00:Z","depth":0,"parameterNumber":3,"parameterNumberName":"V-component_of_WINDS"},"data":[0,0,0,0,0,0,0,0,0,0,0,0,0,0,0,0,0,0,0,0,0,0,0,0,0,0,0,0,0,0,0,0,0,0,0,0,0,0,0,0,0,0,0,0,0,0,0,0,0,0,0,0,0,0,0,0,0,0,-5.2558,-5.2559,0,-5.266,-5.2661,-5.2662,-5.2569,-5.2566,-5.2562,-5.2558,-5.2659,-5.2665,-5.2671,0,0,0,0,0,0,0,0,0,0,0,0,0,-5.228,-5.2285,-5.2558,-5.2559,-5.256,-5.266,-5.2661,-5.2662,-5.257,-5.2566,-5.2561,-5.2557,-5.2657,-5.2664,-5.2671,0,0,0,0,0,0,0,0,0,0,0,0,0,-5.2393,-5.2287,-5.2558,-5.2526,-5.2525,-5.2659,-5.2661,-5.2663,-5.2571,-5.2565,-5.256,-5.2555,-5.2654,-5.2663,-5.2672,-5.2842,0,0,-5.2701,-5.2705,0,0,0,0,0,0,0,0,-5.2387,-5.2403,-5.253,-5.2529,-5.2527,-5.2596,-5.2599,-5.2723,-5.2572,-5.2553,-5.2558,-5.2552,-5.2642,-5.2652,-5.2683,-5.2846,-5.2851,-5.2701,-5.2707,-5.2711,-5.2714,0,0,0,0,0,0,0,-5.2379,-5.2398,-5.2598,-5.2532,-5.253,-5.2506,-5.2516,-5.2622,-5.2628,-5.2555,-5.2548,-5.2562,-5.264,-5.2675,-5.2685,-5.2852,-5.2701,-5.2709,-5.2715,-5.2719,-5.3158,-5.3164,0,0,0,0,0,0,-5.2375,-5.2392,-5.2595,-5.2601,-5.2442,-5.2516,-5.2527,-5.258,-5.2626,-5.2628,-5.2566,-5.2557,-5.2662,-5.2674,-5.2688,-5.2889,-5.2711,-5.272,-5.2725,-5.3152,-5.316,-5.3166,0,0,0,0,0,0,-5.2369,-5.2394,-5.2591,-5.2495,-5.2518,-5.2526,-5.2587,-5.2585,-5.2619,-5.2635,-5.2635,-5.2601,-5.2658,-5.2675,-5.2804,-5.2892,-5.2724,-5.2732,-5.3145,-5.3155,-5.3163,-5.3294,0,0,0,0,0,0,-5.2362,-5.2392,-5.2458,-5.2497,-5.2524,-5.2707,-5.2592,-5.2591,-5.2636,-5.2624,-5.2668,-5.2669,-5.2655,-5.2791,-5.2814,-5.2901,-5.2739,-5.3137,-5.3149,-5.316,-5.3282,-5.3306,-5.3327,0,0,0,0,0,-5.2352,-5.249,-5.2462,-5.2487,-5.2606,-5.2712,-5.2727,-5.2708,-5.2643,-5.2708,-5.2719,-5.2668,-5.2878,-5.2805,-5.283,-5.2922,-5.3132,-5.3146,-5.3159,-5.3271,-5.3301,-5.3327,0,0,0,0,0,0,-5.2459,-5.2494,-5.2464,-5.2618,-5.2663,-5.2696,-5.2778,-5.2741,-5.2804,-5.2791,-5.2763,-5.2774,-5.2911,-5.2928,-5.2846,-5.3087,-5.2994,-5.3014,-5.3071,-5.31,-5.3122,-5.3115,-5.2747,0,0,0,0,0,-5.2501,-5.2585,-5.2611,-5.2745,-5.2769,-5.277,-5.2816,-5.2798,-5.2842,-5.286,-5.288,-5.2924,-5.3,-5.3051,-5.3121,-5.3283,-5.3291,-5.3359,-5.3381,-5.34,-5.3417,-5.3504,-5.3534,-5.3212,-5.3212,-5.3211,0,0,-5.2588,-5.2617,-5.2672,-5.2767,-5.28,-5.2887,-5.2787,-5.2883,-5.2947,-5.2874,-5.2998,-5.3014,-5.3061,-5.3208,-5.3273,-5.3227,-5.3508,-5.3418,-5.3432,-5.344,-5.3521,-5.3552,-5.3579,-5.3221,-5.3219,-5.3218,0,0,-5.2791,-5.2822,-5.2937,-5.2972,-5.3023,-5.3023,-5.305,-5.309,-5.3098,-5.3222,-5.3169,-5.3244,-5.3375,-5.3412,-5.3447,-5.3664,-5.3619,-5.3687,-5.3807,-5.3892,-5.3917,-5.3939,-5.4017,-5.4045,-5.3704,-5.3704,-5.3705,0,-5.2892,-5.3022,-5.3001,-5.3101,-5.3144,-5.3084,-5.32,-5.3234,-5.3305,-5.3336,-5.3283,-5.3447,-5.3474,-5.3628,-5.3681,-5.3712,-5.3742,-5.3682,-5.3915,-5.3937,-5.3958,-5.4031,-5.4061,-5.3712,-5.3711,-5.3711,-5.371,0,-5.3144,-5.3235,-5.3322,-5.3394,-5.3447,-5.3554,-5.3548,-5.3603,-5.358,-5.3585,-5.3712,-5.3743,-5.3819,-5.3854,-5.3832,-5.4005,-5.3975,-5.3919,-5.3825,-5.3997,-5.4066,-5.4094,-5.3724,-5.3721,-5.3719,-5.3717,0,0,-5.3418,-5.3477,-5.3509,-5.3541,-5.3592,-5.3662,-5.3766,-5.3842,-5.389,-5.3941,-5.4027,-5.414,-5.4089,-5.4129,-5.4111,-5.4185,-5.4355,-5.412,-5.4121,-5.4163,-5.4547,-5.4589,-5.4622,-5.4325,-5.4331,-5.4335,-5.4543,0,-5.3623,-5.3806,-5.379,-5.3963,-5.4047,-5.399,-5.4081,-5.4122,-5.4129,-5.42,-5.4206,-5.4287,-5.4214,-5.4238,-5.4309,-5.4319,-5.4432,-5.4304,-5.4405,-5.4409,-5.4396,-5.4658,-5.4702,-5.4898,-5.457,-5.4574,-5.4578,0,-5.3887,-5.3949,-5.4131,-5.417,-5.4204,-5.4287,-5.4355,-5.4423,-5.4468,-5.4468,-5.4513,-5.4482,-5.4585,-5.4489,-5.4631,-5.4545,-5.4584,-5.4596,-5.4603,-5.4612,-5.4504,-5.4674,-5.4959,-5.4989,-5.462,-5.4616,-5.4613,0,-5.4069,-5.4197,-5.4323,-5.4352,-5.44,-5.4459,-5.4482,-5.4521,-5.4568,-5.4627,-5.4656,-5.4726,-5.4764,-5.4818,-5.4806,-5.4737,-5.4951,-5.4853,-5.4953,-5.4954,-5.5001,-5.4998,-5.5297,-5.5027,-5.5026,-5.5026,-5.5025,0,-5.43,-5.4414,-5.4405,-5.4483,-5.4608,-5.4587,-5.4711,-5.4726,-5.4762,-5.484,-5.4794,-5.4868,-5.4848,-5.492,-5.4911,-5.503,-5.5047,-5.5049,-5.5046,-5.5054,-5.5054,-5.508,-5.5067,-5.5033,-5.5032,-5.503,-5.5029,0,-5.4524,-5.4523,-5.4657,-5.4692,-5.4704,-5.4794,-5.4824,-5.4896,-5.4899,-5.4999,-5.5021,-5.5026,-5.511,-5.5103,-5.5196,-5.519,-5.5337,-5.5317,-5.5323,-5.5319,-5.5419,-5.541,-5.5746,-5.5788,-5.549,-5.5493,-5.5495,0,-5.4672,-5.4759,-5.4804,-5.4854,-5.4881,-5.4962,-5.5009,-5.4991,-5.5043,-5.51,-5.5165,-5.5245,-5.5308,-5.5443,-5.5454,-5.5525,-5.5507,-5.5619,-5.5517,-5.5523,-5.5509,-5.5504,-5.5513,-5.564,-5.5643,-5.5646,-5.5648,0,-5.4935,-5.493,-5.5001,-5.5073,-5.5131,-5.5186,-5.5236,-5.5279,-5.5266,-5.5326,-5.5411,-5.546,-5.5556,-5.5636,-5.5703,-5.5724,-5.5685,-5.568,-5.5707,-5.5717,-5.5717,-5.5719,-5.5378,-5.5673,-5.567,-5.5669,-5.5667,-5.5666,-5.5126,-5.52,-5.5243,-5.5324,-5.536,-5.5408,-5.5478,-5.549,-5.5562,-5.564,-5.5624,-5.5721,-5.5762,-5.5849,-5.5877,-5.5951,-5.591,-5.5949,-5.5959,-5.5969,-5.5981,-5.5705,-5.5963,-5.5962,-5.5962,-5.5961,-5.5961,0,-5.5386,-5.5411,-5.5486,-5.5558,-5.5621,-5.5579,-5.5632,-5.5688,-5.5774,-5.5816,-5.588,-5.5978,-5.6054,-5.6072,-5.6145,-5.6201,-5.6184,-5.6221,-5.6216,-5.6222,-5.6013,-5.5983,-5.6233,-5.6233,-5.6233,-5.6233,-5.6233,-5.6232,-5.5529,-5.5653,-5.5653,-5.5794,-5.5817,-5.5913,-5.5947,-5.599,-5.6024,-5.6137,-5.6201,-5.6212,-5.6244,-5.6319,-5.6387,-5.639,-5.6419,-5.6463,-5.6459,-5.6264,-5.6237,-5.6211,-5.6182,-5.647,-5.647,-5.6662,-5.6663,-5.6665]}]]